When you browse on this site, cookies collect data to enhance your experience and personalize the content and advertising you see.
Visit our Privacy Policy to learn more. By continuing to use the site, you agree to this use of cookies and data.
  • en France
  • Liste des pays
  • À 7 jours
  • Température de l'eau
  • Carte satellitaire
  • Carte météo
  • Widgets météo
  • user-avatar
    Se connecter

    Météo par heure à Sydney

    Ce jour, 23 Janvier, Mercredi

    Heure Température Précipitation Vent Pression Humidité
    00:00 +26°C° 0 mm 2 m/s 757 mmHg 81%
    01:00 +26°C° 0 mm 2 m/s 757 mmHg 82%
    02:00 +26°C° 0 mm 2 m/s 757 mmHg 82%
    03:00 +26°C° 0 mm 1 m/s 757 mmHg 82%
    04:00 +25°C° 0 mm 1 m/s 757 mmHg 84%
    05:00 +26°C° 0.7 mm 1 m/s 757 mmHg 82%
    06:00 +26°C° 0.7 mm 1 m/s 757 mmHg 80%
    07:00 +27°C° 0.7 mm 1 m/s 758 mmHg 78%
    08:00 +29°C° 0 mm 2 m/s 758 mmHg 69%
    09:00 +31°C° 0 mm 3 m/s 758 mmHg 59%
    10:00 +33°C° 0 mm 4 m/s 757 mmHg 55%
    11:00 +33°C° 0 mm 6 m/s 757 mmHg 54%
    12:00 +33°C° 0 mm 7 m/s 757 mmHg 53%
    13:00 +33°C° 0 mm 9 m/s 757 mmHg 52%
    14:00 +32°C° 0.1 mm 9 m/s 757 mmHg 54%
    15:00 +31°C° 0.1 mm 8 m/s 758 mmHg 55%
    16:00 +28°C° 0 mm 10 m/s 758 mmHg 63%
    17:00 +27°C° 0.5 mm 8 m/s 759 mmHg 65%
    18:00 +26°C° 0.5 mm 7 m/s 759 mmHg 67%
    19:00 +26°C° 0.5 mm 6 m/s 760 mmHg 70%
    20:00 +24°C° 0 mm 6 m/s 760 mmHg 72%
    21:00 +24°C° 0 mm 6 m/s 760 mmHg 74%
    22:00 +23°C° 0 mm 7 m/s 761 mmHg 78%
    23:00 +23°C° 0.3 mm 6 m/s 761 mmHg 80%

    Demain, 24 Janvier, Jeudi

    Heure Température Précipitation Vent Pression Humidité
    00:00 +23°C° 0.3 mm 6 m/s 761 mmHg 82%
    01:00 +23°C° 0.3 mm 5 m/s 760 mmHg 83%
    02:00 +23°C° 0.1 mm 5 m/s 760 mmHg 84%
    03:00 +23°C° 0.1 mm 5 m/s 760 mmHg 85%
    04:00 +23°C° 0.1 mm 5 m/s 760 mmHg 86%
    05:00 +23°C° 0.1 mm 5 m/s 761 mmHg 86%
    06:00 +23°C° 0.1 mm 5 m/s 761 mmHg 86%
    07:00 +23°C° 0.1 mm 5 m/s 761 mmHg 86%
    08:00 +23°C° 0 mm 4 m/s 761 mmHg 85%
    09:00 +25°C° 0 mm 4 m/s 761 mmHg 83%
    10:00 +25°C° 0 mm 4 m/s 761 mmHg 82%
    11:00 +27°C° 0 mm 4 m/s 761 mmHg 76%
    12:00 +28°C° 0 mm 4 m/s 761 mmHg 70%
    13:00 +30°C° 0 mm 4 m/s 760 mmHg 64%
    14:00 +30°C° 0 mm 4 m/s 760 mmHg 65%
    15:00 +30°C° 0 mm 4 m/s 759 mmHg 66%
    16:00 +30°C° 0 mm 4 m/s 759 mmHg 67%
    17:00 +29°C° 0 mm 3 m/s 759 mmHg 73%
    18:00 +28°C° 0 mm 3 m/s 759 mmHg 78%
    19:00 +27°C° 0 mm 3 m/s 760 mmHg 84%
    20:00 +26°C° 0 mm 2 m/s 760 mmHg 87%
    21:00 +26°C° 0 mm 1 m/s 760 mmHg 89%
    22:00 +23°C° 0 mm 0 m/s 761 mmHg 92%
    23:00 +23°C° 0 mm 0 m/s 761 mmHg 92%

    Après-demain, 25 Janvier, Vendredi

    Heure Température Précipitation Vent Pression Humidité
    00:00 +23°C° 0 mm 0 m/s 760 mmHg 92%
    01:00 +23°C° 0 mm 0 m/s 760 mmHg 92%
    02:00 +25°C° 0 mm 1 m/s 760 mmHg 92%
    03:00 +25°C° 0 mm 1 m/s 760 mmHg 93%
    04:00 +25°C° 0 mm 1 m/s 759 mmHg 93%
    05:00 +25°C° 0 mm 1 m/s 759 mmHg 89%
    06:00 +26°C° 0 mm 1 m/s 759 mmHg 86%
    07:00 +27°C° 0 mm 2 m/s 759 mmHg 83%
    08:00 +28°C° 0 mm 2 m/s 759 mmHg 74%
    09:00 +30°C° 0 mm 3 m/s 759 mmHg 65%
    10:00 +33°C° 0 mm 3 m/s 759 mmHg 56%
    11:00 +34°C° 0 mm 4 m/s 758 mmHg 53%
    12:00 +36°C° 0 mm 4 m/s 758 mmHg 50%
    13:00 +37°C° 0 mm 5 m/s 757 mmHg 47%
    14:00 +36°C° 0 mm 6 m/s 756 mmHg 49%
    15:00 +36°C° 0 mm 6 m/s 756 mmHg 51%
    16:00 +36°C° 0 mm 7 m/s 755 mmHg 53%
    17:00 +34°C° 0 mm 7 m/s 755 mmHg 59%
    18:00 +32°C° 0 mm 6 m/s 756 mmHg 65%
    19:00 +29°C° 0 mm 6 m/s 756 mmHg 72%
    20:00 +29°C° 0 mm 6 m/s 756 mmHg 73%
    21:00 +29°C° 0 mm 5 m/s 756 mmHg 74%
    22:00 +28°C° 0 mm 5 m/s 757 mmHg 75%
    23:00 +28°C° 0 mm 4 m/s 756 mmHg 76%

    26 Janvier, Samedi

    Heure Température Précipitation Vent Pression Humidité
    00:00 +28°C° 0 mm 4 m/s 756 mmHg 78%
    01:00 +27°C° 0 mm 3 m/s 756 mmHg 80%
    02:00 +27°C° 0 mm 3 m/s 755 mmHg 80%
    03:00 +27°C° 0 mm 3 m/s 755 mmHg 80%
    04:00 +27°C° 0 mm 3 m/s 755 mmHg 80%
    05:00 +28°C° 0 mm 3 m/s 755 mmHg 74%
    06:00 +29°C° 0 mm 3 m/s 756 mmHg 68%
    07:00 +29°C° 0 mm 3 m/s 756 mmHg 62%
    08:00 +32°C° 0 mm 2 m/s 756 mmHg 54%
    09:00 +36°C° 0 mm 2 m/s 756 mmHg 45%
    10:00 +37°C° 0 mm 1 m/s 756 mmHg 37%
    11:00 +39°C° 0 mm 2 m/s 755 mmHg 36%
    12:00 +40°C° 0 mm 3 m/s 755 mmHg 34%
    13:00 +42°C° 0 mm 4 m/s 755 mmHg 33%
    14:00 +41°C° 0 mm 5 m/s 754 mmHg 35%
    15:00 +41°C° 0 mm 5 m/s 754 mmHg 36%
    16:00 +41°C° 0 mm 6 m/s 753 mmHg 38%
    17:00 +39°C° 0 mm 6 m/s 753 mmHg 44%
    18:00 +36°C° 0 mm 6 m/s 753 mmHg 50%
    19:00 +34°C° 0 mm 6 m/s 754 mmHg 56%
    20:00 +34°C° 0 mm 6 m/s 754 mmHg 56%
    21:00 +33°C° 0 mm 6 m/s 754 mmHg 57%
    22:00 +33°C° 0 mm 6 m/s 755 mmHg 57%
    23:00 +32°C° 0 mm 5 m/s 755 mmHg 59%

    27 Janvier, Dimanche

    Heure Température Précipitation Vent Pression Humidité
    00:00 +30°C° 0 mm 4 m/s 755 mmHg 61%
    01:00 +30°C° 0 mm 2 m/s 754 mmHg 63%
    02:00 +29°C° 0 mm 2 m/s 754 mmHg 64%
    03:00 +29°C° 0 mm 2 m/s 754 mmHg 65%
    04:00 +29°C° 0 mm 3 m/s 754 mmHg 67%
    05:00 +29°C° 0 mm 2 m/s 755 mmHg 65%
    06:00 +30°C° 0 mm 2 m/s 755 mmHg 62%
    07:00 +31°C° 0 mm 1 m/s 755 mmHg 60%
    08:00 +33°C° 0 mm 1 m/s 755 mmHg 52%
    09:00 +36°C° 0 mm 1 m/s 756 mmHg 44%
    10:00 +40°C° 0 mm 1 m/s 756 mmHg 35%
    11:00 +38°C° 0 mm 3 m/s 756 mmHg 44%
    12:00 +36°C° 0 mm 6 m/s 755 mmHg 53%
    13:00 +33°C° 0 mm 8 m/s 755 mmHg 61%
    14:00 +32°C° 1 mm 8 m/s 755 mmHg 67%
    15:00 +29°C° 1 mm 7 m/s 755 mmHg 72%
    16:00 +28°C° 1 mm 7 m/s 755 mmHg 78%
    17:00 +27°C° 0.8 mm 6 m/s 756 mmHg 81%
    18:00 +27°C° 0.8 mm 6 m/s 757 mmHg 84%
    19:00 +26°C° 0.8 mm 6 m/s 757 mmHg 87%
    20:00 +26°C° 0.2 mm 6 m/s 758 mmHg 87%
    21:00 +26°C° 0.2 mm 6 m/s 759 mmHg 87%
    22:00 +26°C° 0.2 mm 6 m/s 759 mmHg 86%
    23:00 +24°C° 1.8 mm 6 m/s 759 mmHg 88%

    28 Janvier, Lundi

    Heure Température Précipitation Vent Pression Humidité
    00:00 +25°C° 1.8 mm 5 m/s 759 mmHg 89%
    01:00 +25°C° 1.8 mm 4 m/s 759 mmHg 90%
    02:00 +25°C° 0.3 mm 3 m/s 759 mmHg 90%
    03:00 +25°C° 0.3 mm 2 m/s 759 mmHg 90%
    04:00 +25°C° 0.3 mm 2 m/s 759 mmHg 90%
    05:00 +25°C° 0 mm 2 m/s 759 mmHg 88%
    06:00 +26°C° 0 mm 3 m/s 760 mmHg 86%
    07:00 +26°C° 0 mm 3 m/s 760 mmHg 85%
    08:00 +28°C° 0 mm 3 m/s 760 mmHg 77%
    09:00 +30°C° 0 mm 2 m/s 760 mmHg 69%
    10:00 +32°C° 0 mm 1 m/s 760 mmHg 61%
    11:00 +34°C° 0 mm 2 m/s 759 mmHg 59%
    12:00 +34°C° 0 mm 3 m/s 759 mmHg 57%
    13:00 +35°C° 0 mm 4 m/s 759 mmHg 54%
    14:00 +34°C° 1.3 mm 4 m/s 758 mmHg 60%
    15:00 +33°C° 1.3 mm 4 m/s 758 mmHg 66%
    16:00 +30°C° 1.3 mm 4 m/s 758 mmHg 72%
    17:00 +29°C° 7.2 mm 3 m/s 758 mmHg 78%
    18:00 +28°C° 7.2 mm 3 m/s 759 mmHg 84%
    19:00 +27°C° 7.2 mm 2 m/s 759 mmHg 90%
    20:00 +27°C° 1.7 mm 3 m/s 760 mmHg 90%
    21:00 +27°C° 1.7 mm 3 m/s 761 mmHg 89%
    22:00 +27°C° 1.7 mm 4 m/s 761 mmHg 89%
    23:00 +27°C° 0 mm 4 m/s 761 mmHg 90%
    Voir plus